Simultaneous Nadir Overpasses (SNOs) Predictions

Prediction of SNOs between GOES-16 and AQUA Satellite Orbit:

Table of predicted SNOs for the next 14.0 days since TLE Epoch: 9/3/2022
Index Date Time (GOES-16) GOES-16 Lat,Lon AQUA Lat,Lon Distance(km) Time Diff (sec)
1 09/04/2022 06:24:17 0.04, -75.21 -0.78, -71.45 427.40 80
2 09/04/2022 18:45:33 -0.04, -75.21 -0.35, -76.61 159.08 80
3 09/06/2022 18:35:32 -0.03, -75.21 0.33, -73.52 192.37 80
4 09/07/2022 06:56:40 0.02, -75.22 0.75, -78.65 389.72 80
5 09/09/2022 06:43:59 0.01, -75.23 0.07, -75.56 37.20 80
6 09/11/2022 06:28:37 0.01, -75.26 -0.56, -72.47 316.69 80
7 09/11/2022 18:49:54 -0.01, -75.26 -0.49, -77.63 269.05 80
8 09/13/2022 18:39:52 -0.01, -75.30 0.16, -74.54 85.96 80
9 09/14/2022 07:00:59 0.01, -75.31 0.93, -79.67 495.16 80
10 09/15/2022 18:27:10 -0.01, -75.33 0.81, -71.45 441.35 80
11 09/16/2022 06:48:17 0.01, -75.35 0.27, -76.58 139.75 80
